FENGYUN 1C DEB, 35195

Orbit data source: Space-Track

FENGYUN 1C DEB, 35195 is space debris in SSO originally from a launch on Mon, 10 May 1999 UTC launched from the Taiyaun Space Center, China (TSC). Fengyun 1C debris stems from the Chinese weather satellite Fengyun-1C, which was intentionally destroyed by a Chinese anti-satellite missile in 2007. This event dramatically increased the amount of space debris, with thousands of trackable fragments posing hazards to satellites and human spaceflight. The Fengyun 1C debris cloud has become a focal point in discussions about space sustainability and the need for international regulations to prevent the creation of new debris.

Loading next visibility...
Identifier
35195, 1999-025DPB
Orbit
SSO
Country
Flag of CNCN / PRC
Related business
Manufacturer
Unknown
Mission
Spacecraft
Bus & Motor
Unknown
Mass
Unknown
Launch date (UTC)
1999-05-10 (27 years ago)
Launch vehicle
Unknown
Launch site
Taiyaun Space Center, China (TSC)
Object type
Payload
Rocket body
Debris
Shape & HBR
Unknown shape, 0.1 m
Radar Cross Section
Small (<0.1 m²)

Expand to show TLE details & history
Last TLE update: 6 days ago

TLE from 6 days ago
0 FENGYUN 1C DEB
1 35195U 99025DPB 25344.53316253  .00005580  00000-0  11905-2 0  9990
2 35195  98.9828  78.6916 0103776  75.1357 286.1305 14.55993438908944
Epoch: 2025-12-10T12:47Z
TLE epoch observation values (Epoch: 2025-12-10T12:47:45.242Z)
Latitude
-0.00001°
Longitude
167.25097°
Altitude
689.373 km
Speed
7.522 km/s
True Right ascension
05h 14m 45s
True Declination
0° 00' 00"
Sunlit
Object was in full shadow at epoch
Visualization orbit readout
Latitude
Unknown
Longitude
Unknown
Altitude
Unknown
Speed
Unknown
Apparent Right ascension
Unknown
Apparent Declination
Unknown
Sunlit
N/A
Visualization observer readout
Local Sidereal Time
12:30:18
Azimuth
Unknown
Elevation
Unknown
Doppler factor
Unknown
Orbital elements
Apogee altitude
776.752 km
Perigee altitude
629.776 km
Semi-major axis
7,081.401 km
Eccentricity
0.01038
Inclination
98.9828°
RAAN
78.6916°
Arg. of periapsis
75.1357°
True anomaly
284.98408°
Mean anomaly
286.1305°
Eccentric anomaly
285.55769°
Mean motion
3.6422 °/min
Orbital period
98.84 mins
BSTAR
0.0011905
Loading maneuver chart data...
Computing Atmospheric mass density...

Documentation

Showing up to 5 results
|